This is the latest recevied weather packets stored in our database for station/object W0SS-13. If no packets are shown the sender has not sent any weather packets the latest 10 day(s).
| Time | Temp. | Humidity | Pressure | Rain* | Wind** | Luminosity | Snow |
|---|---|---|---|---|---|---|---|
| 1778000599 | 8.33° C | 84% | 1013.6 hPa | 1.27 mm | - | 236 W/m² | - |
| 1778000294 | 8.33° C | 84% | 1013.6 hPa | 0 mm | - | 213 W/m² | - |
| 1777999990 | 8.33° C | 85% | 1013.6 hPa | 0 mm | - | 148 W/m² | - |
| 1777999685 | 8.33° C | 84% | 1013.7 hPa | 0 mm | - | 91 W/m² | - |
| 1777999383 | 8.33° C | 84% | 1013.9 hPa | 0 mm | - | 94 W/m² | - |
| 1777999081 | 8.33° C | 85% | 1013.4 hPa | 0 mm | - | 143 W/m² | - |
| 1777998779 | 8.33° C | 85% | 1013.5 hPa | 0 mm | - | 154 W/m² | - |
| 1777998477 | 8.33° C | 85% | 1013.3 hPa | 1.78 mm | - | 137 W/m² | - |
| 1777998173 | 8.33° C | 86% | 1013.4 hPa | 1.78 mm | - | 151 W/m² | - |
| 1777997870 | 8.33° C | 86% | 1013.5 hPa | 1.27 mm | - | 200 W/m² | - |
| 1777997568 | 8.33° C | 87% | 1013.7 hPa | 1.27 mm | - | 114 W/m² | - |
| 1777997265 | 8.33° C | 87% | 1013.8 hPa | 1.78 mm | - | 68 W/m² | - |
| 1777996963 | 8.33° C | 86% | 1013.7 hPa | 1.78 mm | - | 53 W/m² | - |
| 1777996659 | 8.33° C | 87% | 1013.9 hPa | 0 mm | - | 42 W/m² | - |
| 1777996355 | 8.33° C | 86% | 1013.9 hPa | 3.05 mm | - | 52 W/m² | - |
| 1777996051 | 8.89° C | 86% | 1013.7 hPa | 3.05 mm | - | 85 W/m² | - |
| 1777995748 | 8.89° C | 86% | 1013.7 hPa | 3.05 mm | - | 98 W/m² | - |
| 1777995444 | 8.89° C | 85% | 1013.8 hPa | 1.27 mm | - | 92 W/m² | - |
| 1777995141 | 8.89° C | 86% | 1013.9 hPa | 0 mm | - | 94 W/m² | - |
| 1777994839 | 8.89° C | 86% | 1013.8 hPa | 0 mm | - | 61 W/m² | - |
| 1777994535 | 8.89° C | 85% | 1013.7 hPa | 0 mm | - | 66 W/m² | - |
| 1777994229 | 8.89° C | 86% | 1014.1 hPa | 0 mm | - | 55 W/m² | - |
| 1777993927 | 8.89° C | 85% | 1013.2 hPa | 0 mm | - | 75 W/m² | - |
| 1777993623 | 9.44° C | 85% | 1013.2 hPa | 0 mm | - | 95 W/m² | - |
| 1777993322 | 8.89° C | 84% | 1013.3 hPa | 0 mm | - | 103 W/m² | - |
* Rain latest hour (hover to see other rain measurements)
** Current wind speed in m/s (hover to see current wind gust speed)